Flag for U.S.A. Weather past 2 weeks in Charleston, South Carolina, U.S.A.

Now
88 °F

Broken clouds.


Feels Like: 93 °F
Forecast: 73 / 90 °F
Wind: 9 mph from West

Location: Charleston Air Force Base Reporting Station

Current Time: Jul 1, 2015 at 5:22:50 PM

Latest Report: Jul 1, 2015 at 4:56 PM


Visibility: 10 mi

Pressure: 29.97 "Hg

Humidity: 55%

Dew point: 70 °F

Location of CharlestonLocation

Historic Weather in Charleston — Graph

°F

Charleston temperature yesterday

Maximum temperature yesterday: 91 °F (at 1:56 PM)
Minimum temperature yesterday: 72 °F (at 11:56 PM)
Average temperature yesterday: 80 °F

Past Weeks' High & Low Weather Summary

 TemperatureHumidityPressure
High99 °F (Jun 16, 3:56 PM)94% (Jun 19, 6:56 AM)30.13 "Hg (Jun 19, 6:56 AM)
Low71 °F (Jun 25, 12:56 AM)34% (Jun 16, 3:56 PM)29.84 "Hg (Jun 27, 6:56 PM)
Average83 °F71%30.01 "Hg
* Reported Jun 16 3:56 PM — Jul 1 3:56 PM, Charleston, Weather by CustomWeather, © 2015

Note: Actual official high and low records may vary slightly from our data, if they occured in-between our weather recording intervals... More about our weather records

Advertising

Charleston weather history for previous 24 hours

 ConditionsComfort  
Time TempWeatherWind HumidityBarometerVisibility
3:56 PM
Wed, Jul 1
87 °FBroken clouds.12 mph57%29.99 "Hg10 mi
2:56 PM86 °FBroken clouds.6 mph59%29.99 "Hg10 mi
1:56 PM85 °FBroken clouds.10 mph61%30.01 "Hg10 mi
12:56 PM84 °FPartly sunny.12 mph63%30.02 "Hg10 mi
11:56 AM82 °FPartly sunny.7 mph67%30.02 "Hg10 mi
10:56 AM79 °FPartly sunny.8 mph74%30.03 "Hg10 mi
9:56 AM76 °FPartly sunny.12 mph80%30.02 "Hg10 mi
8:56 AM74 °FPartly sunny.9 mph88%30.03 "Hg10 mi
7:56 AM72 °FPassing clouds.7 mph91%30.01 "Hg10 mi
6:56 AM71 °FPassing clouds.7 mph93%30.00 "Hg10 mi
5:56 AM71 °FPassing clouds.6 mph93%29.99 "Hg10 mi
4:56 AM72 °FPassing clouds.7 mph91%29.99 "Hg10 mi
3:56 AM73 °FPassing clouds.10 mph88%30.01 "Hg10 mi
2:56 AM73 °FPassing clouds.9 mph88%29.99 "Hg10 mi
1:56 AM71 °FPassing clouds.5 mph93%29.99 "Hg10 mi
12:56 AM72 °FPassing clouds.5 mph91%30.00 "Hg10 mi
11:56 PM
Tue, Jun 30
72 °FPassing clouds.6 mph91%30.00 "Hg10 mi
10:56 PM73 °FPassing clouds.8 mph88%30.01 "Hg10 mi
9:56 PM73 °FPartly cloudy.5 mph90%29.99 "Hg10 mi
8:56 PM73 °FBroken clouds.7 mph90%29.97 "Hg10 mi
7:56 PM73 °FThunderstorms. Mostly cloudy.6 mph90%29.93 "Hg10 mi
6:56 PM83 °FThunderstorms. Broken clouds.13 mph72%29.97 "Hg10 mi
5:56 PM85 °FPartly sunny.16 mph63%29.96 "Hg10 mi
Weather by CustomWeather, © 2015

See weather overviewHow to use our weather pages